Preview of NWS' New Version of Forecast
This preview is not operational and should not be used for support decisions.
Latest weather observations around

Hancock, Houghton County Memorial Airport (KCMX)

Using International System of Units (Switch to English Units)
Date/ Time (EDT) Wind (kph) Vis. (km) Weather Sky Cond. Temp (°C) Rel. Humidity Wind Chill (°C) Heat Index (°C) Pressure Precip. (cm)
Air Dwpt 6 hour Altimeter (hPa) Sea level (hPa) 1 hr 3 hr 6 hr
Max Min
Aug 19 09:53 W 24 16.09 Clear CLR 19 11     61%     1013.9 1013.7      
Aug 19 08:53 W 24 16.09 Clear CLR 18 12     67%     1013.6 1013.5      
Aug 19 07:53 W 18 16.09 Clear CLR 16 11     75%     1013.2 1013      
Aug 19 06:53 W 15 16.09 Clear CLR 14 11     81%     1012.5 1012.4      
Aug 19 05:53 W 15 16.09 Clear CLR 14 12     84%     1011.9 1011.8      
Aug 19 04:53 W 21 16.09 Clear CLR 16 12     78%     1011.5 1011.3      
Aug 19 03:53 W 15 16.09 Clear CLR 14 11     81%     1011.2 1010.9      
Aug 19 02:53 W 11 16.09 Clear CLR 14 11     78%     1010.5 1010.5      
Aug 19 01:53 W 11 16.09 Clear CLR 14 10     75%     1010.2 1010      
Aug 19 00:53 WNW 15 16.09 Clear CLR 16 9     67%     1009.8 1009.5      
Aug 18 23:53 WNW 18 16.09 Clear CLR 16 11     72%     1009.2 1008.9      
Aug 18 22:53 W 17 16.09 Clear CLR 16 12     78%     1008.8 1008.7      
Aug 18 21:53 W 11 16.09 Clear CLR 16 12     80%     1008.1 1008      
Aug 18 20:53 W 15 16.09 Clear CLR 17 12     72%     1007.1 1007      
Aug 18 19:53 W 18 16.09 Clear CLR 18 12     67%     1007.1 1007.1     0
Aug 18 18:53 W 33 16.09 Mostly Clear and Windy FEW029 18 12     65%     1007.1 1006.9      
Aug 18 18:51 W 35 16.09 Mostly Clear and Windy FEW029 18 12     68%     1007.1        
Aug 18 17:53 WNW 37 16.09 Cloudy and Windy FEW012 OVC019 17 13     78%     1006.1 1005.8      
Aug 18 17:32 W 39 16.09 Cloudy and Windy SCT007 OVC013 18 15     84%     1005.4        
Aug 18 17:08 WNW 33 16.09 Cloudy and Windy BKN009 OVC017 18 16     87%     1004.8        
Aug 18 16:53 WNW 28 16.09 Cloudy FEW004 BKN010 OVC017 18 16     90%     1004.1 1003.8 0 0  
Aug 18 16:25 NW 26 14.48 Cloudy OVC002 18 17     93%     1003.4   0    
Aug 18 16:15 NW 30 3.22 Light Rain and Fog/Mist OVC004 18 17     93%     1003.4   0    
Aug 18 15:53 WNW 24 16.09 Cloudy OVC004 19 17     90%     1003.4 1003 0    
Aug 18 15:08 WNW 22 16.09 Cloudy BKN007 BKN044 OVC060 20 18     87%     1002.7   0    
Aug 18 14:53 WNW 21 9.66 Light Rain and Fog/Mist SCT007 BKN042 OVC055 19 18     90%     1002.7 1002.2 0    
Aug 18 14:45 WNW 22 4.83 Light Rain and Fog/Mist SCT008 BKN040 OVC060 19 18     90%     1002.7   0    
Aug 18 14:30 WNW 26 8.05 Light Rain and Fog/Mist SCT006 BKN012 OVC046 19 18     90%     1002.4   0    
Aug 18 14:17 WNW 18 14.48 Light Rain BKN012 BKN049 OVC060 21 18     87%     1002.4   0    
Aug 18 13:53 W 9 4.83 Light Rain and Fog/Mist FEW019 BKN050 OVC070 20 18     90%     1002 1001.6 0   1
Aug 18 12:53 S 8 4.83 Rain and Fog/Mist FEW065 OVC090 19 18     90%     1002.4 1001.9 0    
Aug 18 11:53 SSE 8 6.44 Rain and Fog/Mist FEW009 BKN080 OVC100 19 17     90%     1003.4 1003 0    
Aug 18 11:42 SSE 13 8.05 Light Rain and Fog/Mist FEW009 SCT080 OVC100 19 17     90%     1003.4   0    
Aug 18 11:30 ESE 15 6.44 Rain and Fog/Mist SCT015 SCT050 OVC085 18 17     93%     1003.7   0    
Aug 18 11:21 SE 13 3.22 Rain and Fog/Mist SCT013 BKN049 OVC075 18 17     93%     1004.1   0    
Aug 18 11:17 SE 13 2.82 Thunderstorms and Heavy Rain and Fog/Mist SCT013 BKN049 OVC075 18 17     93%     1004.1   0    
Aug 18 11:13 SSE 9 3.22 Thunderstorms and Rain and Fog/Mist SCT013 BKN025 OVC049 19 17     90%     1004.1   0    
Aug 18 11:10 S 9 4.83 Thunderstorms and Rain and Fog/Mist SCT013 OVC049 19 17     90%     1004.4   0    
Aug 18 10:53   16.09 Cloudy FEW016 BKN050 OVC055 19 17     90%     1004.1 1003.7 0 0  
Aug 18 10:43 SE 9 4.83 Light Rain and Fog/Mist FEW025 BKN060 OVC070 18 17     90%     1003.7   0    
Aug 18 10:36 ESE 11 2.82 Heavy Rain and Fog/Mist FEW015 BKN045 OVC070 18 17     90%     1004.1   0    
Aug 18 09:53 E 13 16.09 Partly Cloudy SCT110 18 16     87%     1004.4 1004.1      
Aug 18 08:53 ESE 13 16.09 Cloudy BKN055 OVC070 19 16     84%     1005.1 1004.8      
Aug 18 07:53 ENE 9 16.09 Clear CLR 17 15     90%     1004.4 1003.9      
Aug 18 06:53 Calm 16.09 Clear CLR 16 14     90%     1006.1 1005.9      
Aug 18 05:53 SW 8 16.09 Clear CLR 17 15     87%     1007.5 1006.9      
Aug 18 04:53 S 8 16.09 Clear CLR 17 15     87%     1007.1 1006.7      
Aug 18 03:53 SW 11 16.09 Clear CLR 18 15     81%     1008.1 1007.6      
Aug 18 02:53 SSW 9 16.09 Clear CLR 19 15     78%     1007.8        
Aug 18 01:53 S 9 16.09 Clear CLR 18 15     81%     1008.8        
Aug 18 00:53 SSE 8 16.09 Clear CLR 17 14     86%     1009.2        
Aug 17 23:53 ENE 13 16.09 Clear CLR 18 14     81%     1009.8        
Aug 17 22:53 ENE 15 16.09 Clear CLR 19 14     75%     1009.5        
Aug 17 21:53 ENE 13 16.09 Mostly Clear FEW090 19 14     75%     1009.2        
Aug 17 20:53 E 13 16.09 Clear CLR 20 14     68%     1009.2 1008.8      
Aug 17 19:53 E 11 16.09 Clear CLR 22 16     66%   22 1009.2 1009      
Aug 17 18:53 E 11 16.09 Clear CLR 23 16     62%   23 1009.5 1009.2      
Aug 17 17:53 E 15 16.09 Partly Cloudy FEW065 SCT080 24 17     64%   25 1009.8 1009.5      
Aug 17 16:53 E 13 16.09 Clear CLR 27 16     52%   27 1009.8 1009.4      
Aug 17 15:53 11 16.09 Partly Cloudy SCT050 SCT080 27 15     47%   27 1010.2 1009.7      
Aug 17 14:53 8 16.09 Clear CLR 27 17     53%   28 1010.2 1009.7      
Aug 17 13:53   16.09 Mostly Cloudy BKN050 BKN065 27 14     44%   27 1010.5 1010.2      
Aug 17 12:53 Calm 16.09 Mostly Clear FEW046 27 15     49%   27 1010.5 1010      
Aug 17 11:53 Calm 16.09 Clear CLR 24 16     60%   24 1011.2 1010.7      
Aug 17 10:53 SW 9 16.09 Clear CLR 23 17     71%   23 1011.5 1011.1      
Aug 17 09:53 SW 11 16.09 Clear CLR 20 16     78%     1011.5 1011.4      
Aug 17 08:53 SW 8 16.09 Clear CLR 17 16     90%     1009.8 1009.6      
Aug 17 07:53 Calm 16.09 Clear CLR 14 13     93%     1009.5 1009.2      
Aug 17 07:14 Calm 4.83 Fog/Mist   12 11     93%     1009.5        
Aug 17 07:09 Calm 2.01 Fog/Mist   12 11     93%     1009.5        
Aug 17 06:53 Calm 0.4 Fog   13 12     93%     1009.5 1009.4      
Aug 17 06:06 Calm 0.4 Fog VV001 12 11     96%     1009.5        
Aug 17 05:53 Calm 0.8 Fog VV001 12 11     93%     1009.5 1009.5      
Aug 17 05:37 Calm 0.8 Fog VV001 12 11     96%     1009.5        
Aug 17 05:23 Calm 1.61 Fog/Mist VV001 12 11     93%     1009.5        
Aug 17 05:09 Calm 0.4 Fog VV001 13 12     93%     1009.5        
Aug 17 04:53 Calm 1.21 Fog/Mist OVC001 12 11     93%     1009.5 1009.4      
Aug 17 04:41 Calm 0.8 Fog VV001 12 11     93%     1009.5        
Aug 17 03:53 Calm 0.4 Fog VV001 13 12     93%     1009.5 1009.4      
Aug 17 02:53 Calm 0.4 Fog VV001 14 14     97%     1009.5 1009.6      
Aug 17 01:53 Calm 0.4 Fog VV001 12 11     93%     1009.5 1009.6      
Aug 17 01:35 Calm 0.4 Fog VV001 13 12     93%     1009.5        
Aug 17 01:26 Calm 0.8 Fog VV001 13 12     96%     1009.5        
Aug 17 00:53 Calm 0.4 Fog VV001 14 13     93%     1009.2 1009.1      
Aug 16 23:53 ENE 5 0.4 Fog VV001 15 14     93%     1009.2 1008.9      
Aug 16 23:31 E 5 0.4 Fog VV001 14 13     93%     1009.2        
Aug 16 23:13 Calm 0.4 Fog VV002 16 14     93%     1009.2        
Aug 16 22:53 Calm 0.8 Fog CLR 16 15     93%     1009.2 1009      
Aug 16 22:43 Calm 2.82 Fog/Mist CLR 16 14     90%     1009.2        
Aug 16 22:16 ESE 5 12.87 Mostly Clear FEW003 FEW014 17 15     90%     1009.5        
Aug 16 21:53 ESE 5 16.09 Cloudy FEW004 OVC014 17 16     93%     1009.5 1009.2      
Aug 16 21:42 ESE 11 16.09 Cloudy FEW004 OVC014 17 16     93%     1009.2        
Aug 16 21:34 ESE 9 16.09 Cloudy FEW004 OVC015 17 16     93%     1009.2        
Aug 16 21:27 ESE 9 16.09 Cloudy BKN004 OVC015 17 16     93%     1009.2        
Aug 16 21:00 ESE 9 16.09 Cloudy SCT004 OVC012 18 16     90%     1008.8        
Aug 16 20:53 ESE 9 16.09 Mostly Cloudy BKN011 18 16     87%     1008.8 1008.5      
Aug 16 20:41 SE 11 16.09 Mostly Cloudy BKN012 18 17     90%     1008.8        
Aug 16 19:53 S 11 16.09 Clear CLR 19 16     81%     1008.5 1008.3     1
Aug 16 19:33 S 9 16.09 Partly Cloudy SCT012 20 16     78%     1008.5        
Aug 16 19:05 S 9 16.09 Cloudy BKN010 BKN028 OVC090 20 17     84%     1008.5        
Aug 16 18:53 SSE 9 16.09 Cloudy FEW008 BKN030 OVC090 19 17     84%     1008.8 1008.5 0    
Aug 16 18:38 SSE 9 16.09 Clear   19 17     87%     1008.8   0    
Aug 16 18:22 SE 9 16.09 Clear   19 17     87%     1009.2   0    
Aug 16 18:11 SSE 8 14.48 Clear   19 17     87%     1009.2   0    
Aug 16 17:53 SSE 8 16.09 Clear   19 17     84%     1009.2 1008.8 0    
Aug 16 17:34 S 8 16.09 Cloudy FEW004 SCT025 OVC060 19 17     84%     1009.2   0    
Aug 16 17:03 SE 9 12.87 Light Rain SCT006 BKN015 OVC100 19 17     87%     1009.2   0    
Aug 16 16:53 SW 15 16.09 Cloudy FEW013 BKN019 OVC100 20 17     81%     1009.2 1008.8 0 1  
Aug 16 15:53 WSW 8 12.87 Light Rain BKN040 BKN047 OVC080 19 17     87%     1009.5 1009.2 0    
Aug 16 15:01 SSW 8 6.44 Light Rain and Fog/Mist FEW009 BKN038 OVC048 18 16     87%     1009.5   0    
Aug 16 14:58 SW 5 3.22 Light Rain and Fog/Mist SCT013 BKN037 OVC070 18 16     87%     1009.5   0    
Aug 16 14:53 SW 11 2.01 Heavy Rain and Fog/Mist FEW008 BKN016 OVC044 18 16     87%     1009.5 1009.4 1    
Aug 16 14:43 SSW 13 2.82 Heavy Rain FEW010 BKN017 OVC042 18 16     84%     1009.5   0    
Aug 16 14:35 S 21 9.66 Light Rain BKN017 BKN030 OVC049 19 16     84%     1009.5   0    
Aug 16 14:17 S 9 16.09 Cloudy FEW024 BKN038 OVC050 20 16     76%     1009.5        
Aug 16 13:53 S 15 16.09 Cloudy SCT018 BKN025 OVC033 20 16     76%     1009.8 1009.5 0   0
Aug 16 12:53 S 9 16.09 Light Rain SCT016 OVC024 19 15     76%     1009.8 1009.5 0    
Aug 16 11:53 SE 11 16.09 Cloudy BKN017 BKN024 OVC047 19 15     78%     1010.2 1010      
Aug 16 10:53 ESE 11 16.09 Cloudy SCT042 BKN048 OVC075 17 14     81%     1010.5 1010.3 0 0  
Aug 16 09:53 ESE 11 16.09 Light Rain BKN070 OVC095 17 14     84%     1010.5 1010.3 0    
Aug 16 08:53 SE 8 16.09 Partly Cloudy FEW050 FEW065 SCT120 17 13     80%     1010.5 1010.4      
Aug 16 07:53 S 13 16.09 Mostly Clear FEW047 16 13     81%     1010.8 1010.8      
Aug 16 06:53 SSW 9 16.09 Cloudy OVC100 16 13     81%     1011.2 1010.8      
Aug 16 05:53 SSW 9 16.09 Mostly Clear FEW100 16 12     78%     1011.2 1010.9      
Aug 16 04:53 SSW 9 16.09 Clear CLR 16 12     80%     1011.5 1011.2      
May 15 13:53 ESE 18 16.09 Clear CLR 11 -4     35%     1020 1020.2      
May 15 08:53 E 8 16.09 Clear CLR 7 -5     42% 6   1019 1019.3      
May 14 20:53 NW 9 16.09 Clear CLR 19 5     39%     1008.5 1008.1      
Notice The following observation data may not be complete
May 14 18:53 WNW 17 16.09 Clear CLR   4      %     1008.5 1008.3      
Notice The following observation data may not be complete
May 14 07:53   16.09 Clear CLR          %              
May 14 02:53 W 22 16.09 Clear CLR 17 2     38%     1009.8 1009.6      
May 13 15:53   16.09 Cloudy OVC110 21 -3     21%     1011.9 1012      
Notice The following observation data may not be complete
May 12 12:53   16.09 Clear CLR          %              
May 11 20:53 ESE 15 16.09 Clear CLR 4 -6     48% 0   1019.7 1020.6      
Notice The following observation data may not be complete
Jun 12 07:53 WNW 22 16.09 Cloudy OVC004   15      %     1009.5 1009.4      
Notice The following observation data may not be complete
Jun 12 04:53   16.09 Clear CLR   15      %     1008.1 1007.9      
Jun 12 01:53 Calm 16.09 Cloudy OVC024 17 16     90%     1007.5 1007.4     0
Jun 11 22:53 WNW 9 16.09 Clear CLR 17 14     86%     1006.4 1006.2   0  
Jun 11 06:53 NW 11 16.09 Clear CLR 15 10     72%     1007.8        
Jun 09 18:53 ESE 15 16.09 Clear CLR 17 2     37%     1009.8 1009.9      
Jun 08 13:53 ESE 8 16.09 Mostly Cloudy BKN120 21 14     63%     1011.2 1011 0   0
Notice The following observation data may not be complete
Jun 08 08:53 SW 5 16.09 Partly Cloudy SCT080   11      %     1013.6 1013.2      
Jun 08 03:53 Calm 16.09 Clear CLR 13 7     66%     1013.9 1013.7      
Jun 08 01:53 Calm 16.09 Clear CLR 12 6     66%     1014.6 1014.4      
Jun 07 22:53 Calm 16.09 Clear CLR 13 8     74%     1015.6        
Jun 07 15:53   16.09 Clear CLR 25 7     31%   24 1018 1018      
Jun 06 06:53 NW 15 16.09 Clear CLR 11 4     63%     1020 1020.2